This is the latest recevied weather packets stored in our database for station/object K7AEL. If no packets are shown the sender has not sent any weather packets the latest 10 day(s).
| Time | Temp. | Humidity | Pressure | Rain* | Wind** | Luminosity | Snow |
|---|---|---|---|---|---|---|---|
| 1778030461 | 22.78° C | 29% | 1011.9 hPa | 0 mm | - | 40 W/m² | - |
| 1778030159 | 22.78° C | 29% | 1011.6 hPa | 0 mm | - | 47 W/m² | - |
| 1778029854 | 22.78° C | 29% | 1011.6 hPa | 0 mm | - | 55 W/m² | - |
| 1778029549 | 22.78° C | 29% | 1011.7 hPa | 0 mm | - | 63 W/m² | - |
| 1778029245 | 22.78° C | 30% | 1011.7 hPa | 0 mm | - | 72 W/m² | - |
| 1778028942 | 22.78° C | 30% | 1011.7 hPa | 0 mm | - | 83 W/m² | - |
| 1778028638 | 23.33° C | 30% | 1011.4 hPa | 0 mm | - | 93 W/m² | - |
| 1778028335 | 23.89° C | 30% | 1011.4 hPa | 0 mm | - | 103 W/m² | - |
| 1778028032 | 23.89° C | 30% | 1011.4 hPa | 0 mm | - | 121 W/m² | - |
| 1778027728 | 23.89° C | 30% | 1011.3 hPa | 0 mm | - | 145 W/m² | - |
| 1778027424 | 23.89° C | 30% | 1011.2 hPa | 0 mm | - | 161 W/m² | - |
| 1778027121 | 23.89° C | 29% | 1011.2 hPa | 0 mm | - | 162 W/m² | - |
| 1778026816 | 24.44° C | 29% | 1011.2 hPa | 0 mm | - | 170 W/m² | - |
| 1778026513 | 24.44° C | 28% | 1011.3 hPa | 0 mm | - | 181 W/m² | - |
| 1778026210 | 24.44° C | 27% | 1011 hPa | 0 mm | - | 200 W/m² | - |
| 1778025908 | 25° C | 27% | 1011 hPa | 0 mm | - | 211 W/m² | - |
| 1778025605 | 25° C | 28% | 1010.9 hPa | 0 mm | - | 225 W/m² | - |
| 1778025303 | 25° C | 28% | 1010.9 hPa | 0 mm | - | 243 W/m² | - |
| 1778024999 | 24.44° C | 27% | 1011 hPa | 0 mm | - | 265 W/m² | - |
| 1778024697 | 25° C | 27% | 1011 hPa | 0 mm | - | 277 W/m² | - |
| 1778024393 | 25° C | 27% | 1010.9 hPa | 0 mm | - | 291 W/m² | - |
| 1778024091 | 25.56° C | 27% | 1010.8 hPa | 0 mm | - | 309 W/m² | - |
| 1778023788 | 25.56° C | 26% | 1010.7 hPa | 0 mm | - | 326 W/m² | - |
| 1778023486 | 26.11° C | 26% | 1010.9 hPa | 0 mm | - | 341 W/m² | - |
| 1778023183 | 25.56° C | 25% | 1010.9 hPa | 0 mm | - | 369 W/m² | - |
* Rain latest hour (hover to see other rain measurements)
** Current wind speed in m/s (hover to see current wind gust speed)